Back to catalog

STARLINK-37676

AliveCommunicationsSSO
NORAD 69313·PAYLOAD·🇺🇸 United States

Launched May 30, 2026 from Vandenberg Space Force Base

Loading…

Next Passes (next 24 hours)

TLE

FreshSource: CelesTrak SupGP

Epoch: Sep 14, 2026, 14:30 UTC

1 69313C 26119T   26257.60465278 -.00004294  00000+0 -13328-3 0  2578
2 69313  97.2840 282.4640 0001308 109.7474 213.4508 15.33444504    11

Track STARLINK-37676 in real time with AllMySat

Download on the App Store